[[{"header":{"parameterUnit":"m.s-1","parameterCategory":1,"la1":30.2991,"la2":30.254,"lo1":-89.0895,"lo2":-89.0444,"dy":0.0017,"dx":0.0017,"nx":28,"ny":28,"refTime":"2023-10-17T09:00:00:Z","depth":0,"parameterNumber":2,"parameterNumberName":"U-component_of_WINDS"},"data":[0,0,0,0,0,0,0,0,0,0,0,0,0,0,0,0,0,0,0,0,0,0,0,0,0,0,0,0,0,0,0,0,0,0,0,0,0,0,0,0,0,0,0,0,0,0,0,0,0,0,0,0,0,0,0,0,0,0,-0.6396,-0.6398,0,-0.6604,-0.6606,-0.6608,-0.6737,-0.6737,-0.6738,-0.6739,-0.6947,-0.6952,-0.6957,0,0,0,0,0,0,0,0,0,0,0,0,0,-0.6106,-0.6111,-0.6395,-0.6398,-0.6401,-0.6603,-0.6606,-0.6609,-0.6737,-0.6737,-0.6738,-0.6739,-0.6946,-0.6952,-0.6957,0,0,0,0,0,0,0,0,0,0,0,0,0,-0.6264,-0.6112,-0.6395,-0.6489,-0.6499,-0.6603,-0.6606,-0.661,-0.6736,-0.6737,-0.6738,-0.6739,-0.6944,-0.6951,-0.6958,-0.6983,0,0,-0.6981,-0.6984,0,0,0,0,0,0,0,0,-0.6255,-0.6275,-0.6473,-0.6483,-0.6495,-0.6645,-0.6581,-0.6735,-0.6736,-0.6646,-0.6739,-0.674,-0.6846,-0.6861,-0.6898,-0.6993,-0.7002,-0.6981,-0.6986,-0.6989,-0.6991,0,0,0,0,0,0,0,-0.6244,-0.6267,-0.6478,-0.6475,-0.6489,-0.652,-0.6543,-0.661,-0.6737,-0.6654,-0.6664,-0.6687,-0.6852,-0.689,-0.6904,-0.7005,-0.6981,-0.6988,-0.6992,-0.6995,-0.713,-0.713,0,0,0,0,0,0,-0.6219,-0.6257,-0.6471,-0.6484,-0.6375,-0.6524,-0.6551,-0.6596,-0.6737,-0.676,-0.6686,-0.6692,-0.6877,-0.6895,-0.6911,-0.695,-0.6989,-0.6996,-0.7,-0.7131,-0.713,-0.7129,0,0,0,0,0,0,-0.6212,-0.6237,-0.6463,-0.6373,-0.6404,-0.6528,-0.6578,-0.6599,-0.6638,-0.6761,-0.6784,-0.6702,-0.6879,-0.6901,-0.6965,-0.6959,-0.6999,-0.7006,-0.7132,-0.7131,-0.713,-0.7026,0,0,0,0,0,0,-0.6203,-0.6233,-0.6245,-0.6372,-0.6409,-0.6513,-0.6578,-0.6603,-0.6651,-0.6661,-0.6782,-0.6804,-0.6881,-0.6953,-0.6972,-0.697,-0.7012,-0.7133,-0.7132,-0.713,-0.703,-0.7021,-0.7013,0,0,0,0,0,-0.6192,-0.6206,-0.6245,-0.627,-0.6425,-0.6512,-0.6533,-0.6623,-0.665,-0.6662,-0.6741,-0.68,-0.6956,-0.6958,-0.6981,-0.698,-0.7134,-0.7132,-0.713,-0.7034,-0.7023,-0.7013,0,0,0,0,0,0,-0.6073,-0.6224,-0.6269,-0.6325,-0.6405,-0.6534,-0.6551,-0.6609,-0.6682,-0.6688,-0.6796,-0.6822,-0.6875,-0.6935,-0.6934,-0.7012,-0.7052,-0.7054,-0.6971,-0.6961,-0.6953,-0.6937,-0.7018,0,0,0,0,0,-0.6053,-0.6112,-0.6241,-0.6278,-0.6316,-0.6426,-0.6468,-0.6531,-0.6617,-0.6652,-0.6736,-0.6816,-0.6884,-0.6926,-0.6995,-0.704,-0.7068,-0.7051,-0.7042,-0.7035,-0.7035,-0.7063,-0.7056,-0.7123,-0.7123,-0.7123,0,0,-0.6012,-0.6103,-0.6133,-0.6256,-0.6326,-0.6383,-0.6454,-0.6512,-0.6555,-0.666,-0.6725,-0.679,-0.6887,-0.6941,-0.6969,-0.6992,-0.7023,-0.7032,-0.7025,-0.703,-0.706,-0.7054,-0.7048,-0.7122,-0.7122,-0.7122,0,0,-0.5968,-0.6042,-0.6081,-0.615,-0.6255,-0.6329,-0.6338,-0.6459,-0.6506,-0.6574,-0.6654,-0.6706,-0.6821,-0.6887,-0.6935,-0.6917,-0.6973,-0.6937,-0.6891,-0.6917,-0.6912,-0.6908,-0.69,-0.6896,-0.6937,-0.6937,-0.6937,0,-0.5903,-0.5995,-0.6093,-0.6147,-0.6199,-0.6298,-0.6337,-0.6399,-0.652,-0.6553,-0.6578,-0.6724,-0.6797,-0.6867,-0.6863,-0.6899,-0.6912,-0.6922,-0.6905,-0.6902,-0.6899,-0.6893,-0.689,-0.6931,-0.6932,-0.6933,-0.6933,0,-0.591,-0.5972,-0.5991,-0.6107,-0.6161,-0.6207,-0.6312,-0.6354,-0.6413,-0.6483,-0.6551,-0.6642,-0.6731,-0.6753,-0.681,-0.6832,-0.6843,-0.6885,-0.6927,-0.6886,-0.6882,-0.6881,-0.6924,-0.6926,-0.6927,-0.6929,0,0,-0.5794,-0.5966,-0.5971,-0.6025,-0.6149,-0.6198,-0.6249,-0.6338,-0.6371,-0.6452,-0.6496,-0.6592,-0.6632,-0.6687,-0.6752,-0.6775,-0.6754,-0.6815,-0.6819,-0.6799,-0.6783,-0.6749,-0.6745,-0.6793,-0.6793,-0.6793,-0.6774,0,-0.5767,-0.5864,-0.5955,-0.6018,-0.6077,-0.6172,-0.6217,-0.6296,-0.6364,-0.6422,-0.6497,-0.6562,-0.6611,-0.6645,-0.6672,-0.675,-0.6752,-0.6753,-0.6834,-0.6835,-0.6805,-0.6743,-0.6708,-0.6686,-0.6773,-0.6773,-0.6773,0,-0.5748,-0.5826,-0.5895,-0.6014,-0.6042,-0.608,-0.6169,-0.6224,-0.6317,-0.6364,-0.6426,-0.6496,-0.6553,-0.659,-0.667,-0.6669,-0.6707,-0.6751,-0.6752,-0.6762,-0.68,-0.675,-0.6681,-0.6677,-0.6772,-0.6772,-0.6772,0,-0.5655,-0.5777,-0.5835,-0.5878,-0.6019,-0.6043,-0.6102,-0.6196,-0.6244,-0.6322,-0.6354,-0.6436,-0.648,-0.6542,-0.6632,-0.6651,-0.6702,-0.6746,-0.6742,-0.6739,-0.6747,-0.6745,-0.6681,-0.6773,-0.6773,-0.6773,-0.6773,0,-0.5614,-0.5652,-0.5795,-0.583,-0.5876,-0.598,-0.6022,-0.609,-0.6173,-0.6222,-0.631,-0.6354,-0.6471,-0.6529,-0.66,-0.6654,-0.6674,-0.6713,-0.6731,-0.6705,-0.6699,-0.673,-0.6733,-0.6773,-0.6773,-0.6773,-0.6773,0,-0.5517,-0.5614,-0.5683,-0.5811,-0.5844,-0.5872,-0.5981,-0.6018,-0.6092,-0.6153,-0.6173,-0.6288,-0.6361,-0.6457,-0.6559,-0.6607,-0.6652,-0.6681,-0.6621,-0.6631,-0.6621,-0.662,-0.6574,-0.6573,-0.6665,-0.6664,-0.6664,0,-0.5483,-0.5516,-0.5647,-0.5688,-0.5745,-0.5808,-0.5858,-0.5961,-0.6009,-0.6118,-0.6142,-0.6222,-0.6291,-0.6403,-0.6494,-0.6573,-0.6604,-0.6582,-0.6616,-0.6588,-0.6602,-0.6598,-0.6602,-0.6573,-0.6571,-0.657,-0.6569,0,-0.5414,-0.5461,-0.553,-0.5616,-0.5673,-0.5745,-0.5821,-0.5849,-0.5968,-0.6018,-0.6094,-0.6148,-0.6253,-0.6331,-0.6422,-0.6483,-0.6545,-0.6558,-0.6561,-0.6533,-0.6497,-0.6515,-0.6597,-0.6558,-0.6559,-0.656,-0.6561,-0.6561,-0.5347,-0.538,-0.5478,-0.5552,-0.5621,-0.569,-0.5732,-0.5811,-0.5877,-0.5972,-0.6029,-0.6103,-0.6195,-0.6325,-0.6382,-0.6441,-0.6465,-0.6469,-0.647,-0.6469,-0.646,-0.6489,-0.6458,-0.6458,-0.6459,-0.6459,-0.6459,0,-0.5281,-0.5349,-0.5416,-0.5521,-0.5579,-0.5635,-0.5723,-0.5767,-0.5831,-0.5913,-0.598,-0.6067,-0.6144,-0.6242,-0.6325,-0.6353,-0.6383,-0.6371,-0.6369,-0.6381,-0.6434,-0.6423,-0.6344,-0.6344,-0.6344,-0.6344,-0.6344,-0.6344,-0.5253,-0.5312,-0.537,-0.5464,-0.5532,-0.5606,-0.5651,-0.5715,-0.5781,-0.5876,-0.594,-0.6004,-0.6093,-0.6183,-0.6255,-0.6282,-0.6308,-0.6286,-0.6321,-0.6368,-0.6378,-0.6387,-0.6377,-0.6291,-0.6291,-0.6264,-0.6263,-0.6263]},{"header":{"parameterUnit":"m.s-1","parameterCategory":1,"la1":30.2991,"la2":30.254,"lo1":-89.0895,"lo2":-89.0444,"dy":0.0017,"dx":0.0017,"nx":28,"ny":28,"refTime":"2023-10-17T09:00:00:Z","depth":0,"parameterNumber":3,"parameterNumberName":"V-component_of_WINDS"},"data":[0,0,0,0,0,0,0,0,0,0,0,0,0,0,0,0,0,0,0,0,0,0,0,0,0,0,0,0,0,0,0,0,0,0,0,0,0,0,0,0,0,0,0,0,0,0,0,0,0,0,0,0,0,0,0,0,0,0,-0.5061,-0.5061,0,-0.5064,-0.5064,-0.5064,-0.5072,-0.5072,-0.5073,-0.5073,-0.5078,-0.5078,-0.5078,0,0,0,0,0,0,0,0,0,0,0,0,0,-0.5064,-0.5064,-0.5061,-0.5061,-0.5061,-0.5064,-0.5064,-0.5064,-0.5072,-0.5072,-0.5073,-0.5073,-0.5078,-0.5078,-0.5078,0,0,0,0,0,0,0,0,0,0,0,0,0,-0.5064,-0.5064,-0.5061,-0.5065,-0.5066,-0.5064,-0.5064,-0.5064,-0.5072,-0.5072,-0.5073,-0.5073,-0.5078,-0.5078,-0.5078,-0.5072,0,0,-0.5078,-0.5078,0,0,0,0,0,0,0,0,-0.5064,-0.5064,-0.5065,-0.5065,-0.5065,-0.5068,-0.5067,-0.5067,-0.5072,-0.507,-0.5073,-0.5073,-0.5074,-0.5075,-0.5075,-0.5072,-0.5073,-0.5078,-0.5078,-0.5078,-0.5078,0,0,0,0,0,0,0,-0.5064,-0.5064,-0.5062,-0.5065,-0.5065,-0.5068,-0.5068,-0.5067,-0.5071,-0.507,-0.5071,-0.5071,-0.5075,-0.5075,-0.5075,-0.5073,-0.5078,-0.5078,-0.5078,-0.5078,-0.5065,-0.5065,0,0,0,0,0,0,-0.5063,-0.5064,-0.5062,-0.5062,-0.5065,-0.5067,-0.5068,-0.5067,-0.5071,-0.5071,-0.507,-0.5071,-0.5075,-0.5075,-0.5075,-0.5068,-0.5078,-0.5078,-0.5078,-0.5065,-0.5065,-0.5065,0,0,0,0,0,0,-0.5063,-0.5063,-0.5062,-0.5063,-0.5063,-0.5067,-0.5066,-0.5067,-0.5067,-0.5071,-0.5072,-0.507,-0.5075,-0.5075,-0.5072,-0.5068,-0.5078,-0.5078,-0.5066,-0.5065,-0.5065,-0.5054,0,0,0,0,0,0,-0.5063,-0.5063,-0.506,-0.5063,-0.5063,-0.5059,-0.5066,-0.5067,-0.5066,-0.5067,-0.507,-0.5071,-0.5075,-0.5072,-0.5072,-0.5068,-0.5078,-0.5066,-0.5065,-0.5065,-0.5055,-0.5053,-0.5052,0,0,0,0,0,-0.5063,-0.5058,-0.506,-0.506,-0.506,-0.5058,-0.5058,-0.5062,-0.5066,-0.5064,-0.5066,-0.5071,-0.5069,-0.5072,-0.5072,-0.5068,-0.5066,-0.5066,-0.5065,-0.5056,-0.5054,-0.5052,0,0,0,0,0,0,-0.5056,-0.5059,-0.5061,-0.5056,-0.5057,-0.506,-0.5057,-0.506,-0.5061,-0.5061,-0.5067,-0.5068,-0.5064,-0.5066,-0.507,-0.5062,-0.5068,-0.5068,-0.5061,-0.5059,-0.5058,-0.5058,-0.5078,0,0,0,0,0,-0.5054,-0.5052,-0.5054,-0.505,-0.505,-0.5053,-0.5053,-0.5056,-0.5057,-0.5057,-0.506,-0.5061,-0.5061,-0.506,-0.506,-0.5055,-0.5056,-0.5052,-0.5051,-0.505,-0.5049,-0.5046,-0.5044,-0.5062,-0.5062,-0.5062,0,0,-0.505,-0.5051,-0.5049,-0.5048,-0.5049,-0.5047,-0.5054,-0.5051,-0.505,-0.5057,-0.5054,-0.5056,-0.5058,-0.5054,-0.5052,-0.5055,-0.5044,-0.5049,-0.5048,-0.5048,-0.5045,-0.5043,-0.5042,-0.5062,-0.5062,-0.5062,0,0,-0.504,-0.5041,-0.5037,-0.5037,-0.5038,-0.504,-0.5039,-0.5041,-0.5042,-0.5039,-0.5044,-0.5043,-0.5042,-0.5043,-0.5043,-0.5033,-0.5037,-0.5033,-0.5025,-0.5022,-0.5021,-0.5019,-0.5015,-0.5014,-0.5032,-0.5032,-0.5032,0,-0.5035,-0.5031,-0.5035,-0.5031,-0.5031,-0.5036,-0.5032,-0.5033,-0.5033,-0.5033,-0.5036,-0.5035,-0.5036,-0.5032,-0.5029,-0.503,-0.5029,-0.5032,-0.502,-0.5019,-0.5018,-0.5014,-0.5013,-0.5031,-0.5031,-0.5031,-0.5031,0,-0.5024,-0.5022,-0.5018,-0.5018,-0.5017,-0.5013,-0.5016,-0.5015,-0.5018,-0.502,-0.5016,-0.5018,-0.5018,-0.5017,-0.5021,-0.5013,-0.5015,-0.5019,-0.5025,-0.5016,-0.5012,-0.5011,-0.503,-0.5031,-0.5031,-0.5031,0,0,-0.5011,-0.5011,-0.501,-0.5009,-0.501,-0.5008,-0.5005,-0.5004,-0.5002,-0.5003,-0.5,-0.4998,-0.5002,-0.5002,-0.5005,-0.5003,-0.4993,-0.5007,-0.5007,-0.5004,-0.4985,-0.4981,-0.4979,-0.4996,-0.4996,-0.4996,-0.4984,0,-0.5002,-0.4995,-0.4998,-0.4991,-0.4988,-0.4993,-0.499,-0.499,-0.4991,-0.499,-0.4992,-0.499,-0.4995,-0.4995,-0.4993,-0.4995,-0.4989,-0.4996,-0.4994,-0.4993,-0.4993,-0.4978,-0.4974,-0.4963,-0.4983,-0.4983,-0.4983,0,-0.499,-0.4989,-0.4981,-0.4981,-0.498,-0.4977,-0.4976,-0.4974,-0.4974,-0.4976,-0.4975,-0.4979,-0.4976,-0.4981,-0.4977,-0.4981,-0.498,-0.4981,-0.4981,-0.4981,-0.4987,-0.4976,-0.496,-0.4958,-0.498,-0.4981,-0.4981,0,-0.4981,-0.4977,-0.4972,-0.4971,-0.4971,-0.4969,-0.4969,-0.4969,-0.4968,-0.4967,-0.4966,-0.4965,-0.4965,-0.4964,-0.4967,-0.4971,-0.4962,-0.4968,-0.4963,-0.4963,-0.4961,-0.4961,-0.4943,-0.4961,-0.4961,-0.4961,-0.4961,0,-0.497,-0.4965,-0.4967,-0.4964,-0.4959,-0.4961,-0.4956,-0.4957,-0.4957,-0.4954,-0.4958,-0.4956,-0.496,-0.4958,-0.4961,-0.4956,-0.4956,-0.4957,-0.4958,-0.4957,-0.4956,-0.4956,-0.4957,-0.496,-0.4961,-0.4961,-0.4961,0,-0.4958,-0.4959,-0.4954,-0.4954,-0.4954,-0.495,-0.495,-0.4947,-0.4948,-0.4945,-0.4944,-0.4946,-0.4944,-0.4947,-0.4945,-0.4947,-0.494,-0.4943,-0.494,-0.494,-0.4935,-0.4935,-0.4916,-0.4914,-0.4933,-0.4933,-0.4933,0,-0.4951,-0.4947,-0.4946,-0.4944,-0.4943,-0.494,-0.4939,-0.4941,-0.4939,-0.4939,-0.4936,-0.4933,-0.4932,-0.4928,-0.493,-0.4928,-0.493,-0.4923,-0.493,-0.4928,-0.4929,-0.4929,-0.4929,-0.4922,-0.4922,-0.4922,-0.4922,0,-0.4938,-0.4938,-0.4935,-0.4932,-0.493,-0.4928,-0.4927,-0.4925,-0.4927,-0.4925,-0.4922,-0.4921,-0.4918,-0.4916,-0.4914,-0.4915,-0.4919,-0.4919,-0.4918,-0.4916,-0.4915,-0.4915,-0.4936,-0.492,-0.492,-0.492,-0.492,-0.492,-0.4928,-0.4924,-0.4923,-0.4919,-0.4918,-0.4916,-0.4913,-0.4913,-0.491,-0.4908,-0.491,-0.4906,-0.4906,-0.4904,-0.4904,-0.4901,-0.4904,-0.4902,-0.4902,-0.4901,-0.49,-0.4915,-0.4901,-0.4901,-0.4901,-0.4901,-0.4901,0,-0.4915,-0.4914,-0.491,-0.4907,-0.4904,-0.4907,-0.4905,-0.4902,-0.4899,-0.4897,-0.4895,-0.4891,-0.4889,-0.489,-0.4888,-0.4885,-0.4887,-0.4884,-0.4885,-0.4884,-0.4898,-0.4899,-0.4883,-0.4883,-0.4883,-0.4883,-0.4883,-0.4883,-0.4907,-0.4901,-0.4901,-0.4894,-0.4893,-0.4889,-0.4887,-0.4886,-0.4885,-0.488,-0.4877,-0.4877,-0.4877,-0.4875,-0.4872,-0.4873,-0.4872,-0.4869,-0.487,-0.4882,-0.4884,-0.4885,-0.4886,-0.4868,-0.4868,-0.4857,-0.4856,-0.4856]}]]